Weather History for Bigfork, MN

Change the Weather History Date:

Wednesday, March 6, 2013

  Actual Average (KGPZ) Record (KGPZ)
Temperature  
Mean Temperature 12 °F -  
Max Temperature 26 °F 34 °F 55 °F (2005)
Min Temperature -4 °F 9 °F -29 °F (1945)
Degree Days  
Heating Degree Days 53    
Moisture  
Dew Point 6 °F    
Average Humidity 77    
Maximum Humidity 92    
Minimum Humidity 59    
Precipitation  
Precipitation 0.00 in - - ()
Sea Level Pressure  
Sea Level Pressure 30.33 in    
Wind  
Wind Speed 1 mph (NNW)    
Max Wind Speed 6 mph    
Max Gust Speed -    
Visibility 9 miles    
Events Snow    
Averages and records for this station are not official NWS values.
T = Trace of Precipitation, MM = Missing Value Source: NWS Daily Summary

Daily Weather History Graph

Daily Weather History Graph

Search for Another Location

Airport:

Trip Planner

Search our weather history database for the weather conditions in past years. The results will help you decide how hot, cold, wet, or windy it might be!

Date:

Astronomy

Mar. 06, 2013 Rise Set
Actual Time 6:45 AM CST 6:07 PM CST
Civil Twilight 6:14 AM CST 6:38 PM CST
Nautical Twilight 5:38 AM CST 7:13 PM CST
Astronomical Twilight 5:02 AM CST 7:50 PM CST
Moon 3:13 AM CST (3/6) 12:31 PM CST (3/6)
Length of Visible Light 12h 23m
Length of Day
11h 22m
Waning Crescent, 29% of the Moon is Illuminated
Mar 6
Waning Crescent
Mar 11
New
Mar 19
First Quarter
Mar 27
Full
Apr 2
Last Quarter

Hourly Weather History & Observations

Time (CST) Temp. Windchill Dew Point Humidity Pressure Visibility Wind Dir Wind Speed Gust Speed Precip Events Conditions
12:13 AM 12.2 °F - 8.6 °F 85% 30.30 in 5.0 mi Calm Calm - N/A Snow Light Snow
12:33 AM 10.4 °F - 6.8 °F 85% 30.31 in 10.0 mi Calm Calm - N/A Snow Light Snow
12:53 AM 8.6 °F - 3.2 °F 79% 30.31 in 10.0 mi Calm Calm - N/A Snow Light Snow
1:13 AM 8.6 °F - 6.8 °F 92% 30.32 in 10.0 mi Calm Calm - N/A   Scattered Clouds
1:33 AM 8.6 °F - 3.2 °F 79% 30.32 in 10.0 mi Calm Calm - N/A   Clear
1:53 AM 6.8 °F - 3.2 °F 85% 30.32 in 10.0 mi Calm Calm - N/A   Clear
2:13 AM 5.0 °F - 1.4 °F 85% 30.32 in 10.0 mi Calm Calm - N/A   Clear
2:33 AM 3.2 °F - -0.4 °F 85% 30.32 in 10.0 mi Calm Calm - N/A   Clear
2:53 AM 1.4 °F - -2.2 °F 85% 30.32 in 10.0 mi Calm Calm - N/A   Clear
3:13 AM 1.4 °F - -4.0 °F 78% 30.32 in 10.0 mi Calm Calm - N/A   Scattered Clouds
3:33 AM 3.2 °F - -0.4 °F 85% 30.32 in 10.0 mi Calm Calm - N/A   Overcast
3:53 AM 6.8 °F - 3.2 °F 85% 30.32 in 5.0 mi Calm Calm - N/A   Overcast
4:13 AM 8.6 °F - 3.2 °F 79% 30.32 in 10.0 mi Calm Calm - N/A   Overcast
4:33 AM 6.8 °F - 1.4 °F 79% 30.32 in 5.0 mi Calm Calm - N/A   Overcast
4:53 AM 6.8 °F - 3.2 °F 85% 30.33 in 2.0 mi Calm Calm - N/A Snow Light Snow
5:53 AM 8.6 °F - 3.2 °F 79% 30.34 in 5.0 mi Calm Calm - N/A Snow Light Snow
6:13 AM 6.8 °F - 3.2 °F 85% 30.35 in 7.0 mi Calm Calm - N/A Snow Light Snow
6:33 AM 6.8 °F - 1.4 °F 79% 30.35 in 7.0 mi Calm Calm - N/A Snow Light Snow
6:53 AM 6.8 °F - 1.4 °F 79% 30.36 in 5.0 mi Calm Calm - N/A Snow Light Snow
7:13 AM 5.0 °F - 1.4 °F 85% 30.37 in 7.0 mi Calm Calm - N/A Snow Light Snow
7:33 AM 6.8 °F - 1.4 °F 79% 30.38 in 3.0 mi Calm Calm - N/A Snow Light Snow
7:54 AM 6.8 °F - 3.2 °F 85% 30.38 in 2.5 mi Calm Calm - N/A Snow Light Snow
8:13 AM 6.8 °F - 3.2 °F 85% 30.38 in 4.0 mi Calm Calm - N/A Snow Light Snow
8:33 AM 8.6 °F - 5.0 °F 85% 30.38 in 2.0 mi Calm Calm - N/A Snow Light Snow
8:53 AM 8.6 °F - 6.8 °F 92% 30.38 in 3.0 mi Calm Calm - N/A Snow Light Snow
9:13 AM 10.4 °F - 6.8 °F 85% 30.38 in 1.5 mi Calm Calm - N/A Snow Light Snow
9:33 AM 12.2 °F - 10.4 °F 92% 30.37 in 5.0 mi Calm Calm - N/A Snow Light Snow
9:53 AM 14.0 °F 8.2 °F 10.4 °F 86% 30.37 in 7.0 mi North 3.5 mph - N/A Snow Light Snow
10:13 AM 15.8 °F - 12.2 °F 86% 30.37 in 10.0 mi Calm Calm - N/A   Scattered Clouds
10:33 AM 17.6 °F 9.3 °F 12.2 °F 79% 30.37 in 10.0 mi North 5.8 mph - N/A   Scattered Clouds
10:53 AM 17.6 °F 10.7 °F 14.0 °F 86% 30.36 in 10.0 mi WNW 4.6 mph - N/A Snow Light Snow
11:13 AM 19.4 °F 12.8 °F 12.2 °F 74% 30.36 in 10.0 mi North 4.6 mph - N/A Snow Light Snow
11:33 AM 21.2 °F 16.4 °F 12.2 °F 68% 30.36 in 7.0 mi North 3.5 mph - N/A Snow Light Snow
11:53 AM 21.2 °F 14.9 °F 12.2 °F 68% 30.36 in 10.0 mi NNW 4.6 mph - N/A Snow Light Snow
12:13 PM 21.2 °F 14.9 °F 12.2 °F 68% 30.35 in 10.0 mi North 4.6 mph - N/A Snow Light Snow
12:33 PM 21.2 °F 13.6 °F 12.2 °F 68% 30.35 in 10.0 mi North 5.8 mph - N/A Snow Light Snow
12:53 PM 21.2 °F 14.9 °F 12.2 °F 68% 30.34 in 10.0 mi NNW 4.6 mph - N/A   Overcast
1:13 PM 23.0 °F 18.4 °F 12.2 °F 63% 30.34 in 10.0 mi NW 3.5 mph - N/A   Mostly Cloudy
1:33 PM 23.0 °F 15.8 °F 12.2 °F 63% 30.33 in 10.0 mi North 5.8 mph - N/A   Mostly Cloudy
1:53 PM 24.8 °F 17.9 °F 12.2 °F 59% 30.32 in 10.0 mi NNW 5.8 mph - N/A Snow Light Snow
2:13 PM 24.8 °F 17.9 °F 12.2 °F 59% 30.32 in 10.0 mi NW 5.8 mph - N/A Snow Light Snow
2:33 PM 24.8 °F 17.9 °F 12.2 °F 59% 30.32 in 10.0 mi North 5.8 mph - N/A   Mostly Cloudy
2:53 PM 24.8 °F 17.9 °F 12.2 °F 59% 30.32 in 10.0 mi North 5.8 mph - N/A   Overcast
3:13 PM 24.8 °F 17.9 °F 12.2 °F 59% 30.32 in 10.0 mi North 5.8 mph - N/A   Scattered Clouds
3:33 PM 24.8 °F 19.1 °F 12.2 °F 59% 30.31 in 10.0 mi North 4.6 mph - N/A   Scattered Clouds
3:53 PM 26.6 °F 21.2 °F 14.0 °F 59% 30.31 in 10.0 mi North 4.6 mph - N/A   Scattered Clouds
4:13 PM 23.0 °F 18.4 °F 12.2 °F 63% 30.31 in 10.0 mi North 3.5 mph - N/A   Scattered Clouds
4:33 PM 24.8 °F 20.5 °F 12.2 °F 59% 30.31 in 10.0 mi North 3.5 mph - N/A   Mostly Cloudy
4:53 PM 24.8 °F - 12.2 °F 59% 30.31 in 10.0 mi Calm Calm - N/A   Scattered Clouds
5:13 PM 24.8 °F 19.1 °F 12.2 °F 59% 30.30 in 10.0 mi NNE 4.6 mph - N/A   Clear
5:33 PM 23.0 °F - 12.2 °F 63% 30.31 in 10.0 mi Calm Calm - N/A   Clear
5:53 PM 21.2 °F - 12.2 °F 68% 30.31 in 10.0 mi Calm Calm - N/A   Clear
6:13 PM 21.2 °F - 12.2 °F 68% 30.31 in 10.0 mi Calm Calm - N/A   Clear
6:33 PM 19.4 °F - 12.2 °F 74% 30.31 in 10.0 mi Calm Calm - N/A   Clear
6:53 PM 14.0 °F - 10.4 °F 86% 30.32 in 10.0 mi Calm Calm - N/A   Scattered Clouds
7:13 PM 12.2 °F - 8.6 °F 85% 30.32 in 10.0 mi Calm Calm - N/A   Scattered Clouds
7:33 PM 12.2 °F - 8.6 °F 85% 30.32 in 10.0 mi Calm Calm - N/A   Clear
7:53 PM 8.6 °F - 6.8 °F 92% 30.32 in 10.0 mi Calm Calm - N/A   Clear
8:13 PM 8.6 °F - 5.0 °F 85% 30.33 in 10.0 mi Calm Calm - N/A   Clear
8:33 PM 6.8 °F - 3.2 °F 85% 30.33 in 10.0 mi Calm Calm - N/A   Mostly Cloudy
8:53 PM 5.0 °F - 1.4 °F 85% 30.33 in 10.0 mi Calm Calm - N/A   Mostly Cloudy
9:13 PM 5.0 °F - 1.4 °F 85% 30.33 in 10.0 mi Calm Calm - N/A   Scattered Clouds
9:33 PM 3.2 °F - -0.4 °F 85% 30.33 in 10.0 mi Calm Calm - N/A   Clear
9:53 PM 1.4 °F - -2.2 °F 85% 30.33 in 10.0 mi Calm Calm - N/A   Clear
10:13 PM 1.4 °F - -2.2 °F 85% 30.32 in 10.0 mi Calm Calm - N/A   Clear
10:33 PM -0.4 °F - -5.8 °F 78% 30.32 in 10.0 mi Calm Calm - N/A   Clear
10:53 PM -2.2 °F - -7.6 °F 78% 30.33 in 10.0 mi Calm Calm - N/A   Clear
11:13 PM -0.4 °F - -5.8 °F 78% 30.32 in 10.0 mi Calm Calm - N/A   Clear
11:33 PM -2.2 °F - -7.6 °F 78% 30.32 in 10.0 mi Calm Calm - N/A   Clear
11:53 PM -4.0 °F - -9.4 °F 78% 30.32 in 10.0 mi Calm Calm - N/A   Clear